#timestamp,LO_Frequency,Hit,StdDev 
1680793215.6,286046983.2,Y
1680793235.4,286046984.5,P
1680793255.2,286046990.2,N
1680793275.1,286046995.1,N
1680793276.0,286046995.1,N
1680793295.8,286046997.0,N
1680793315.7,286046998.6,N
1680793335.5,286046999.0,N
1680793355.3,286046999.3,N
1680793375.2,286046997.0,N
1680793395.0,286046993.4,N
1680793395.9,286046993.4,N
1680793415.7,286046997.3,N
1680793435.6,286046997.5,N
1680793455.4,286046996.6,N
1680793475.3,286046999.1,N
1680793495.1,286046998.3,N
1680793496.0,286046998.3,N
1680793515.8,286046998.1,N
1680793535.7,286047001.4,N
1680793555.5,286047006.0,N
1680793575.3,286047004.7,N
1680793595.2,286047009.1,N
1680793615.0,286047003.4,N
1680793615.9,286047003.4,N
1680793635.8,286047004.4,N
1680793655.6,286047005.5,N
1680793675.4,286047003.3,N
1680793695.3,286047005.9,N
1680793715.1,286047007.5,N
1680793735.8,286047006.1,N
1680793755.7,286047005.8,N
1680793775.5,286047003.8,N
1680793795.4,286047000.1,N
1680793815.2,286047004.1,N
1680793835.0,286047004.0,N
1680793835.9,286047004.0,N
1680793855.8,286047003.5,N
1680793875.6,286047001.9,N
1680793895.4,286046997.0,N
1680793915.3,286046996.9,N
1680793935.1,286047001.0,N
1680793955.9,286047000.8,N
1680793975.7,286046999.4,N
1680793995.5,286046996.5,N
1680794015.4,286046997.5,N
1680794035.2,286046994.4,N
1680794055.0,286046994.5,N
1680794055.9,286046994.5,N
1680794075.8,286046991.8,N
1680794095.6,286046990.5,N
1680794115.5,286046988.3,N
1680794135.3,286046978.0,Y
1680794155.1,286046966.8,P
1680794175.9,286046954.9,N
1680794195.7,286046951.0,N
1680794215.5,286046950.5,N
1680794235.4,286046959.7,N
1680794255.2,286046971.7,N
1680794275.1,286046975.1,N
1680794276.0,286046975.1,N
1680794295.8,286046974.3,N
1680794315.6,286046981.5,N
1680794335.5,286046986.8,N
1680794355.3,286046987.0,N
1680794375.1,286046990.2,N
1680794395.9,286046992.4,N
1680794415.7,286046992.7,N
1680794435.6,286046993.9,N
1680794455.4,286046992.0,N
1680794475.2,286046989.0,N
1680794495.1,286046991.5,N
1680794496.0,286046991.5,N
1680794515.8,286046992.6,N
1680794535.6,286046991.6,N
1680794555.5,286046992.6,N
1680794575.3,286046994.6,N
1680794595.2,286046995.7,N
1680794615.9,286046994.3,N
1680794635.7,286046993.7,N
1680794655.6,286046997.9,N
1680794675.4,286046995.6,N
1680794695.2,286046995.5,N
1680794715.1,286046991.9,N
1680794716.0,286046991.9,N
1680794735.8,286046992.2,N
1680794755.7,286046994.2,N
1680794775.5,286046993.3,N
1680794795.3,286046990.9,N
1680794815.2,286046989.6,N
1680794835.0,286046988.1,N
1680794835.9,286046988.1,N
1680794855.7,286046986.6,Y
1680794875.6,286046988.3,P
1680794895.4,286046989.5,P
1680794915.3,286046990.6,P
1680794935.1,286046995.0,Y
1680794955.8,286047008.8,P
1680794975.7,286047009.1,N
1680794995.5,286047010.1,N
1680795015.3,286047008.2,N
1680795035.2,286047008.8,N
1680795055.0,286047006.7,N
1680795055.9,286047006.7,N
1680795075.8,286047010.0,N
1680795095.6,286047013.6,N
1680795115.4,286047012.7,N
1680795135.3,286047015.4,N
1680795155.1,286047013.5,N
1680795175.8,286047011.6,N
1680795195.7,286047013.6,N
1680795215.5,286047013.7,N
1680795235.4,286047013.3,N
1680795255.2,286047015.2,N
1680795275.0,286047017.2,Y
1680795275.9,286047017.2,P
1680795295.8,286047007.2,N
1680795315.6,286047007.2,N
1680795335.4,286047006.2,N
1680795355.3,286047010.5,N
1680795375.1,286047011.2,Y
1680795395.9,286047004.2,P
1680795415.7,286047004.9,N
1680795435.5,286047008.0,P
1680795455.4,286047006.7,N
1680795475.2,286047006.4,Y
1680795495.0,286046998.4,P
1680795496.0,286046998.4,N
1680795515.8,286047001.2,N
1680795535.6,286046998.1,N
1680795555.5,286046999.6,N
1680795575.3,286047000.9,N
1680795595.1,286046998.8,N
1680795615.9,286046998.7,N
1680795635.7,286047000.8,N
1680795655.5,286046999.5,N
1680795675.4,286046997.9,N
1680795695.2,286046998.0,N
1680795715.1,286046995.0,N
1680795716.0,286046995.0,N
1680795735.8,286046996.7,N
1680795755.6,286046996.5,N
1680795775.5,286046998.4,N
1680795795.3,286047000.7,N
1680795815.1,286046999.7,N
1680795835.9,286047000.9,N
1680795855.7,286047000.4,N
1680795875.6,286047002.3,N
1680795895.4,286047001.3,N
1680795915.2,286047003.1,N
1680795935.1,286047003.5,N
1680795936.0,286047003.5,N
1680795955.8,286047004.1,N
1680795975.6,286047005.8,N
1680795995.5,286047005.1,N
1680796015.3,286047005.1,N
1680796035.2,286047002.9,N
1680796055.9,286047003.5,N
1680796075.7,286047005.0,N
1680796095.6,286047005.9,N
1680796115.4,286047004.8,N
1680796135.2,286047007.6,N
1680796155.1,286047007.6,N
1680796156.0,286047007.6,N
1680796175.8,286047009.2,N
1680796195.7,286047009.1,N
1680796215.5,286047006.7,N
1680796235.3,286047006.2,N
1680796255.2,286047007.0,N
1680796275.0,286047005.2,N
1680796275.9,286047005.2,N
1680796295.8,286047004.8,N
1680796315.6,286047004.7,N
1680796335.4,286047004.5,N
1680796355.3,286047006.5,N
1680796375.1,286047003.0,N
1680796376.0,286047003.0,N
1680796395.8,286047005.4,N
1680796415.7,286047006.3,Y
1680796435.5,286047001.6,P
1680796455.4,286047001.3,N
1680796475.2,286047001.7,N
1680796495.0,286047001.9,N
1680796495.9,286047001.9,N
1680796515.8,286047002.8,N
1680796535.6,286047001.9,N
1680796555.4,286047001.7,N
1680796575.3,286047004.2,Y
1680796595.1,286047002.0,P
1680796615.9,286047004.4,P
1680796635.7,286047001.3,N
1680796655.5,286047004.2,Y
1680796675.4,286047000.2,P
1680796695.2,286047000.7,N
1680796715.0,286046999.6,N
1680796715.9,286046999.6,N
1680796735.8,286046999.1,N
1680796755.6,286046998.8,N
1680796775.5,286046999.0,N
1680796795.3,286047001.1,N
